Location: Altenst�hlen
(53.5567°N, 8.9425°E)
Time: 16:58:00
(UTC+00:00)

STARLINK-64 - Pass Details

Date: 23 October 2019
Orbit: 545 x 555 km, 53.0° (Epoch: 17 November)

Event Time Altitude Azimuth Distance (km) Brightness Sun altitude
Rises 18:38:09 0° 283° (WNW) 2,736 8.7 -22.5°
Reaches altitude 10° 18:40:25 10° 279° (W) 1,840 7.4 -22.8°
Maximum altitude 18:44:31 56° 201° (SSW) 665 4.0 -23.4°
Enters shadow 18:44:31 56° 201° (SSW) 665 3.9 -23.4°
